When you browse on this site, cookies collect data to enhance your experience and personalize the content and advertising you see.
Visit our Privacy Policy to learn more. By continuing to use the site, you agree to this use of cookies and data.
  • In Österreich
  • Länderverzeichnis
  • Für 7 Tage
  • Wassertemperatur
  • Wetterkarte
  • News
  • Widgets
  • user-avatar
    Anmelden

    Stündliche Wetter San Juan

    Heute, 25 Mai, Montag

    Zeit Temperatur Niederschläge Wind Luftdruck Luftfeuchtigkeit
    00:00 +28°C° 0 mm 3 m/S 761 mmHg 81%
    01:00 +27°C° 0 mm 2 m/S 760 mmHg 82%
    02:00 +27°C° 0 mm 2 m/S 760 mmHg 84%
    03:00 +27°C° 0 mm 2 m/S 760 mmHg 85%
    04:00 +27°C° 0 mm 2 m/S 759 mmHg 85%
    05:00 +27°C° 0 mm 2 m/S 759 mmHg 86%
    06:00 +28°C° 0 mm 2 m/S 760 mmHg 83%
    07:00 +29°C° 0 mm 2 m/S 760 mmHg 79%
    08:00 +30°C° 0 mm 2 m/S 761 mmHg 75%
    09:00 +30°C° 0.2 mm 3 m/S 761 mmHg 73%
    10:00 +32°C° 0.2 mm 4 m/S 761 mmHg 70%
    11:00 +33°C° 0.2 mm 4 m/S 761 mmHg 68%
    12:00 +33°C° 0.8 mm 4 m/S 761 mmHg 67%
    13:00 +34°C° 0.8 mm 5 m/S 760 mmHg 65%
    14:00 +34°C° 0.8 mm 5 m/S 760 mmHg 64%
    15:00 +33°C° 0.4 mm 5 m/S 760 mmHg 66%
    16:00 +33°C° 0.4 mm 5 m/S 759 mmHg 68%
    17:00 +33°C° 0.4 mm 4 m/S 759 mmHg 69%
    18:00 +32°C° 0.1 mm 4 m/S 760 mmHg 73%
    19:00 +30°C° 0.1 mm 4 m/S 760 mmHg 77%
    20:00 +29°C° 0.1 mm 4 m/S 760 mmHg 81%
    21:00 +28°C° 0 mm 4 m/S 761 mmHg 83%
    22:00 +28°C° 0 mm 4 m/S 761 mmHg 84%
    23:00 +27°C° 0 mm 4 m/S 761 mmHg 86%

    Morgen, 26 Mai, Dienstag

    Zeit Temperatur Niederschläge Wind Luftdruck Luftfeuchtigkeit
    00:00 +27°C° 0 mm 3 m/S 761 mmHg 86%
    01:00 +27°C° 0 mm 3 m/S 761 mmHg 87%
    02:00 +27°C° 0 mm 3 m/S 760 mmHg 87%
    03:00 +27°C° 0 mm 3 m/S 760 mmHg 87%
    04:00 +27°C° 0 mm 3 m/S 760 mmHg 87%
    05:00 +27°C° 0 mm 3 m/S 760 mmHg 87%
    06:00 +28°C° 0 mm 3 m/S 760 mmHg 83%
    07:00 +29°C° 0 mm 3 m/S 760 mmHg 79%
    08:00 +30°C° 0 mm 4 m/S 761 mmHg 75%
    09:00 +32°C° 0 mm 4 m/S 761 mmHg 69%
    10:00 +33°C° 0 mm 5 m/S 761 mmHg 64%
    11:00 +34°C° 0 mm 5 m/S 761 mmHg 59%
    12:00 +34°C° 0 mm 5 m/S 761 mmHg 59%
    13:00 +34°C° 0 mm 6 m/S 761 mmHg 60%
    14:00 +34°C° 0 mm 6 m/S 760 mmHg 60%
    15:00 +34°C° 0 mm 6 m/S 760 mmHg 61%
    16:00 +33°C° 0 mm 6 m/S 760 mmHg 63%
    17:00 +33°C° 0 mm 6 m/S 759 mmHg 64%
    18:00 +32°C° 0.1 mm 5 m/S 759 mmHg 70%
    19:00 +30°C° 0.1 mm 5 m/S 760 mmHg 75%
    20:00 +29°C° 0.1 mm 4 m/S 760 mmHg 81%
    21:00 +28°C° 0 mm 4 m/S 761 mmHg 83%
    22:00 +28°C° 0 mm 4 m/S 761 mmHg 84%
    23:00 +28°C° 0 mm 3 m/S 761 mmHg 86%

    übermorgen, 27 Mai, Mittwoch

    Zeit Temperatur Niederschläge Wind Luftdruck Luftfeuchtigkeit
    00:00 +27°C° 0 mm 3 m/S 761 mmHg 87%
    01:00 +27°C° 0 mm 3 m/S 760 mmHg 87%
    02:00 +27°C° 0 mm 3 m/S 760 mmHg 87%
    03:00 +27°C° 0 mm 2 m/S 760 mmHg 87%
    04:00 +27°C° 0 mm 2 m/S 760 mmHg 86%
    05:00 +27°C° 0 mm 2 m/S 760 mmHg 86%
    06:00 +28°C° 0 mm 2 m/S 760 mmHg 82%
    07:00 +28°C° 0 mm 2 m/S 760 mmHg 79%
    08:00 +29°C° 0 mm 2 m/S 761 mmHg 75%
    09:00 +31°C° 0 mm 2 m/S 761 mmHg 69%
    10:00 +33°C° 0 mm 3 m/S 761 mmHg 62%
    11:00 +34°C° 0 mm 3 m/S 761 mmHg 56%
    12:00 +34°C° 0.2 mm 4 m/S 761 mmHg 57%
    13:00 +34°C° 0.2 mm 4 m/S 760 mmHg 59%
    14:00 +34°C° 0.2 mm 5 m/S 760 mmHg 60%
    15:00 +33°C° 1.3 mm 5 m/S 760 mmHg 64%
    16:00 +33°C° 1.3 mm 4 m/S 759 mmHg 67%
    17:00 +32°C° 1.3 mm 4 m/S 759 mmHg 70%
    18:00 +30°C° 0.6 mm 4 m/S 759 mmHg 74%
    19:00 +30°C° 0.6 mm 3 m/S 760 mmHg 77%
    20:00 +29°C° 0.6 mm 3 m/S 760 mmHg 81%
    21:00 +28°C° 0 mm 3 m/S 760 mmHg 81%
    22:00 +28°C° 0 mm 3 m/S 760 mmHg 81%
    23:00 +28°C° 0 mm 3 m/S 760 mmHg 82%

    28 Mai, Donnerstag

    Zeit Temperatur Niederschläge Wind Luftdruck Luftfeuchtigkeit
    00:00 +28°C° 0.2 mm 2 m/S 760 mmHg 82%
    01:00 +27°C° 0.2 mm 2 m/S 759 mmHg 83%
    02:00 +27°C° 0.2 mm 2 m/S 759 mmHg 83%
    03:00 +27°C° 0.2 mm 2 m/S 759 mmHg 83%
    04:00 +27°C° 0.2 mm 2 m/S 759 mmHg 83%
    05:00 +27°C° 0.2 mm 2 m/S 759 mmHg 83%
    06:00 +28°C° 0.1 mm 2 m/S 759 mmHg 80%
    07:00 +29°C° 0.1 mm 2 m/S 760 mmHg 76%
    08:00 +30°C° 0.1 mm 2 m/S 760 mmHg 73%
    09:00 +31°C° 0.4 mm 2 m/S 760 mmHg 69%
    10:00 +31°C° 0.4 mm 3 m/S 760 mmHg 66%
    11:00 +33°C° 0.4 mm 3 m/S 760 mmHg 62%
    12:00 +32°C° 3.1 mm 4 m/S 760 mmHg 69%
    13:00 +30°C° 3.1 mm 4 m/S 760 mmHg 75%
    14:00 +28°C° 3.1 mm 4 m/S 759 mmHg 81%
    15:00 +28°C° 2.7 mm 4 m/S 759 mmHg 83%
    16:00 +28°C° 2.7 mm 4 m/S 759 mmHg 85%
    17:00 +27°C° 2.7 mm 4 m/S 759 mmHg 87%
    18:00 +27°C° 1.2 mm 4 m/S 759 mmHg 88%
    19:00 +27°C° 1.2 mm 4 m/S 760 mmHg 88%
    20:00 +27°C° 1.2 mm 4 m/S 760 mmHg 89%
    21:00 +27°C° 0 mm 5 m/S 760 mmHg 88%
    22:00 +26°C° 0 mm 5 m/S 760 mmHg 87%
    23:00 +26°C° 0 mm 5 m/S 760 mmHg 86%

    29 Mai, Freitag

    Zeit Temperatur Niederschläge Wind Luftdruck Luftfeuchtigkeit
    00:00 +27°C° 0 mm 4 m/S 760 mmHg 86%
    01:00 +27°C° 0 mm 4 m/S 759 mmHg 86%
    02:00 +27°C° 0 mm 4 m/S 759 mmHg 85%
    03:00 +27°C° 0 mm 4 m/S 759 mmHg 85%
    04:00 +27°C° 0 mm 3 m/S 759 mmHg 85%
    05:00 +27°C° 0 mm 3 m/S 759 mmHg 85%
    06:00 +27°C° 1.1 mm 3 m/S 759 mmHg 84%
    07:00 +28°C° 1.1 mm 3 m/S 760 mmHg 83%
    08:00 +28°C° 1.1 mm 3 m/S 760 mmHg 82%
    09:00 +29°C° 2.4 mm 3 m/S 760 mmHg 80%
    10:00 +30°C° 2.4 mm 3 m/S 760 mmHg 77%
    11:00 +30°C° 2.4 mm 4 m/S 761 mmHg 75%
    12:00 +30°C° 1.5 mm 4 m/S 760 mmHg 74%
    13:00 +30°C° 1.5 mm 4 m/S 760 mmHg 73%
    14:00 +32°C° 1.5 mm 4 m/S 760 mmHg 73%
    15:00 +30°C° 0.3 mm 4 m/S 760 mmHg 74%
    16:00 +30°C° 0.3 mm 4 m/S 759 mmHg 75%
    17:00 +30°C° 0.3 mm 4 m/S 759 mmHg 77%
    18:00 +29°C° 0 mm 4 m/S 760 mmHg 79%
    19:00 +29°C° 0 mm 4 m/S 760 mmHg 82%
    20:00 +28°C° 0 mm 4 m/S 760 mmHg 85%
    21:00 +28°C° 0 mm 4 m/S 760 mmHg 85%
    22:00 +28°C° 0 mm 4 m/S 760 mmHg 85%
    23:00 +28°C° 0 mm 4 m/S 761 mmHg 86%

    30 Mai, Samstag

    Zeit Temperatur Niederschläge Wind Luftdruck Luftfeuchtigkeit
    00:00 +27°C° 0 mm 3 m/S 760 mmHg 86%
    01:00 +27°C° 0 mm 3 m/S 760 mmHg 85%
    02:00 +27°C° 0 mm 3 m/S 759 mmHg 85%
    03:00 +27°C° 0 mm 3 m/S 759 mmHg 85%
    04:00 +27°C° 0 mm 2 m/S 759 mmHg 86%
    05:00 +27°C° 0 mm 2 m/S 760 mmHg 86%
    06:00 +28°C° 0 mm 3 m/S 760 mmHg 84%
    07:00 +28°C° 0 mm 3 m/S 760 mmHg 82%
    08:00 +29°C° 0 mm 3 m/S 760 mmHg 80%
    09:00 +30°C° 0 mm 4 m/S 761 mmHg 75%
    10:00 +32°C° 0 mm 4 m/S 761 mmHg 69%
    11:00 +33°C° 0 mm 4 m/S 761 mmHg 63%
    12:00 +33°C° 0 mm 5 m/S 761 mmHg 62%
    13:00 +34°C° 0 mm 5 m/S 761 mmHg 61%
    14:00 +34°C° 0 mm 6 m/S 760 mmHg 60%
    15:00 +33°C° 0 mm 6 m/S 760 mmHg 63%
    16:00 +33°C° 0 mm 6 m/S 760 mmHg 67%
    17:00 +32°C° 0 mm 6 m/S 759 mmHg 70%
    18:00 +30°C° 0 mm 6 m/S 760 mmHg 75%
    19:00 +29°C° 0 mm 5 m/S 760 mmHg 79%
    20:00 +28°C° 0 mm 5 m/S 760 mmHg 83%
    21:00 +28°C° 0 mm 5 m/S 761 mmHg 85%
    22:00 +28°C° 0 mm 4 m/S 761 mmHg 86%
    23:00 +28°C° 0 mm 4 m/S 761 mmHg 87%
    Mehr zeigen